Location: Sandy Point Observatory
(37.2521°N, 76.9605°W)
Time: 11:00:24
(UTC-04:00)

ISS - Visible Passes

Search period start: 24 September 2018 00:00
Search period end: 04 October 2018 00:00
Orbit: 403 x 409 km, 51.6° (Epoch: 25 September)

Date Brightness Start Highest point End Pass type
(mag) Time Alt. Az. Time Alt. Az. Time Alt. Az.
24 Sep -1.5 20:28:48 10° W 20:31:28 22° NNW 20:33:45 12° NNE visible
25 Sep -2.4 19:36:23 10° WSW 19:39:29 37° NW 19:42:35 10° NE visible
26 Sep -1.0 20:22:53 10° NW 20:24:33 13° NNW 20:26:13 10° N visible
27 Sep -1.3 19:29:58 10° WNW 19:32:24 19° NNW 19:34:51 10° NNE visible
29 Sep -1.0 19:24:13 10° NW 19:25:27 12° NNW 19:26:41 10° N visible
